Location: Godzisko
(49.9648°N, 19.4576°E)
Time: 01:25:00
(UTC+00:00)

USA 305 - Pass Details

Date: 20 April 2021
Orbit: 567 x 573 km, 54.0° (Epoch: 07 May)

Event Time Altitude Azimuth Distance (km) Brightness Sun altitude
Exits shadow 02:35:39 - 291° (WNW) 2,736 6.0 -10.1°
Reaches altitude 10° 02:37:49 10° 295° (WNW) 1,882 5.2 -9.8°
Maximum altitude 02:42:05 65° 17° (NNE) 635 3.3 -9.2°
Drops below altitude 10° 02:46:20 10° 100° (E) 1,879 6.4 -8.6°
Sets 02:48:36 0° 103° (ESE) 2,776 7.2 -8.3°
